RH
36 31 32 36 33 32 30 22 20 14 5 3 3 3 4 4 4 3 2 2 2 3 4 5 5 5 6 6 6 4 4 5 7 7 5 4 4 5 5 5 5 6 5 5 6 5 4 4 4 4 5 6 7 7 8 8 10 10 8 11 13 11 11 14 14 15 15 16 14 13 13 12 12 13 13 16 17 18 20 22 22 21 23 26 26 24 22 23
43 28 27 33 30 32 29 22 19 12 4 3 3 4 4 3 3 3 3 2 3 3 4 6 6 6 6 5 5 4 4 6 7 5 4 4 5 6 6 6 6 6 6 6 6 5 4 4 4 5 6 7 7 7 9 10 10 8 8 9 9 11 13 15 15 16 16 15 14 13 12 10 11 12 12 17 19 19 21 22 18 16 18 18 16 12 10 12
37 24 22 25 28 32 26 20 16 7 3 4 4 4 4 3 2 2 3 3 3 4 4 6 6 6 5 5 5 5 5 6 6 5 5 6 6 6 6 6 6 6 6 6 6 5 5 5 5 5 7 7 7 8 9 11 10 8 8 8 10 12 13 14 15 16 15 14 15 13 10 9 9 9 13 17 20 21 20 17 12 12 12 11 8 7 8 7
27 22 21 23 30 30 21 17 10 3 4 4 4 4 3 2 2 2 2 3 4 5 6 6 7 6 5 6 6 6 5 6 6 5 6 6 6 7 6 6 6 7 7 7 6 5 5 5 5 6 7 7 7 8 8 9 9 9 9 9 12 13 13 13 14 15 15 14 13 11 9 8 7 9 15 18 20 21 16 11 10 10 10 9 8 11 13 11
26 24 22 23 28 24 17 13 6 3 4 4 5 4 2 2 2 2 3 4 5 6 7 7 8 8 7 8 8 9 8 6 5 6 6 6 7 7 6 7 7 6 7 7 6 6 5 5 6 7 7 7 7 8 7 7 8 9 10 11 12 11 11 13 15 16 15 14 12 9 8 8 7 11 15 17 18 17 13 11 10 10 11 12 11 15 18 19
28 27 24 19 20 18 13 8 4 5 5 5 5 3 2 3 2 3 4 5 6 7 7 7 7 7 7 6 6 8 8 6 6 7 7 7 7 7 7 7 7 6 7 7 6 6 6 6 7 7 7 7 8 8 9 9 9 9 10 11 11 10 11 14 15 16 16 14 9 8 8 8 8 11 12 14 14 13 12 12 11 13 14 15 15 19 23 25
31 30 24 16 17 15 8 4 5 6 5 5 4 3 2 2 3 4 5 7 7 7 7 6 6 6 5 5 5 6 5 6 6 7 7 7 7 7 7 7 7 7 7 7 7 7 7 7 7 7 7 7 8 9 9 10 10 9 10 11 11 10 13 17 18 17 16 12 9 9 9 8 9 11 12 13 12 13 14 13 13 16 18 19 21 24 28 30
36 32 22 15 16 12 5 4 6 6 5 5 3 3 2 2 3 4 5 7 7 7 7 7 6 6 5 5 6 6 5 6 7 7 7 7 7 7 7 8 7 7 8 7 7 7 7 7 7 7 8 8 9 9 10 11 11 10 10 12 14 13 14 18 18 16 15 13 11 10 8 8 10 12 13 14 13 15 17 17 19 20 22 24 25 29 33 34
39 30 18 15 14 7 4 6 7 7 5 4 3 2 2 3 3 4 5 6 7 7 6 6 5 6 6 5 6 6 6 6 6 7 7 7 7 7 8 8 8 8 8 7 8 7 7 7 7 8 8 9 10 11 11 12 11 11 12 15 16 15 15 16 15 14 16 15 12 10 8 9 12 13 14 15 16 18 21 24 25 26 27 27 29 31 34 36
37 25 14 14 11 4 5 6 6 7 6 3 3 3 3 5 5 5 6 7 8 7 6 6 5 6 6 6 6 6 6 6 7 7 7 7 7 8 8 8 8 8 8 8 8 7 7 7 7 8 9 10 11 11 11 11 11 13 16 18 17 14 15 18 17 17 17 15 12 10 9 10 13 14 16 17 19 22 24 27 28 29 30 30 30 32 35 39
34 21 12 10 6 4 5 4 5 5 5 3 2 4 6 7 6 6 6 7 8 7 6 6 5 6 6 7 6 6 7 7 7 7 7 8 8 9 8 8 8 8 8 8 8 7 7 7 8 9 10 10 11 11 11 11 11 14 16 18 17 15 19 22 21 19 18 16 13 10 10 11 13 15 17 19 21 23 25 26 27 29 31 33 34 34 38 40
39 20 9 8 4 4 4 2 4 4 3 3 3 6 8 9 7 7 7 7 8 7 6 6 5 5 6 7 6 6 7 7 7 7 7 8 8 9 8 8 9 8 8 8 8 8 8 8 9 10 10 11 11 13 12 12 13 14 15 15 15 18 24 27 23 21 21 20 16 12 12 13 15 17 18 20 22 23 24 25 26 29 32 35 35 36 38 37
41 20 5 7 4 3 3 2 4 3 3 3 5 8 9 9 8 8 8 7 7 6 6 5 5 6 6 6 6 7 7 7 8 8 8 8 8 8 8 9 9 9 9 8 9 9 9 9 10 10 10 11 12 14 13 13 14 13 15 14 13 17 22 26 26 24 24 21 18 17 16 14 16 18 19 22 23 24 25 26 28 31 34 36 36 37 37 32
31 16 4 5 4 3 3 3 3 3 4 4 6 9 10 10 9 8 7 6 6 5 5 5 5 6 6 6 6 7 7 7 8 8 8 8 8 9 9 9 9 9 9 9 10 10 10 10 11 11 11 12 13 14 14 14 14 13 18 17 14 16 17 23 27 23 19 16 16 18 17 15 15 18 22 24 25 26 26 27 30 33 36 38 39 40 37 32
21 11 4 4 3 3 4 5 5 4 4 4 7 9 9 9 8 7 6 5 6 5 5 5 6 6 6 6 7 7 7 7 8 8 8 8 8 9 9 9 9 10 9 9 10 10 10 11 12 12 13 14 14 14 14 14 14 14 19 18 15 17 15 19 23 20 17 14 14 18 18 16 16 20 25 27 27 27 27 28 32 35 38 39 42 42 37 34
13 6 5 4 3 5 7 8 7 5 5 5 8 9 9 9 8 7 6 6 6 6 7 6 6 6 6 7 7 8 8 8 8 8 8 9 9 9 10 10 9 9 9 9 10 10 11 11 12 13 14 15 15 17 18 17 15 15 17 18 17 17 16 16 17 19 18 14 14 19 20 18 18 24 27 28 28 28 27 29 32 35 37 40 42 41 38 37
7 5 6 4 4 8 11 10 9 7 5 7 9 9 9 9 8 7 7 7 7 7 8 7 7 7 7 7 8 8 8 8 8 8 9 9 9 10 10 10 9 10 10 10 11 11 11 12 13 14 14 16 16 17 20 20 18 17 16 17 18 17 18 17 15 19 19 16 16 20 23 22 22 28 28 27 28 28 28 29 32 35 37 40 42 40 39 37
5 6 6 4 5 8 10 10 10 9 8 9 9 9 9 9 8 7 7 7 8 8 8 8 11 10 7 8 8 8 8 9 9 9 9 9 9 10 10 10 10 10 10 11 12 11 12 13 14 14 14 16 17 17 20 21 20 21 20 21 23 21 19 18 17 19 20 19 19 22 25 26 27 30 28 26 28 28 28 29 32 34 37 41 40 39 38 39
5 8 7 4 5 6 7 8 9 9 10 10 10 10 9 8 7 7 7 7 7 7 7 7 9 9 8 8 8 8 9 9 9 9 10 10 10 10 10 10 10 10 11 12 12 12 12 14 13 14 16 17 19 19 20 21 21 23 25 26 28 24 19 18 18 19 22 21 21 25 27 27 30 31 27 26 28 28 29 31 34 35 39 41 40 39 39 45
6 8 6 4 4 5 6 7 9 10 10 10 9 9 8 8 8 7 7 7 7 7 7 7 7 7 8 8 8 9 9 9 10 10 10 10 11 11 11 11 11 11 12 12 12 13 13 14 14 16 19 20 21 22 22 22 22 23 28 30 28 23 18 19 19 19 25 25 23 27 28 29 34 32 27 27 28 28 30 32 34 37 40 41 40 41 42 52
7 7 5 4 6 7 8 9 11 11 10 9 9 8 7 7 7 7 7 6 6 6 7 7 8 8 8 8 8 9 9 10 10 11 11 11 11 12 11 11 12 11 12 13 13 15 15 14 16 18 19 20 21 23 22 22 23 24 28 30 27 23 18 18 20 21 27 28 24 29 31 33 36 31 27 28 28 29 30 32 35 38 41 41 42 43 46 55
5 5 4 5 8 10 10 11 11 10 9 10 9 8 7 7 7 8 8 6 6 6 7 7 7 8 8 8 9 9 10 11 11 11 11 12 12 12 12 12 12 12 13 14 14 15 15 16 19 20 19 21 22 23 23 23 24 25 27 28 26 24 20 18 19 21 27 29 27 31 36 38 35 29 27 29 29 30 31 33 36 40 41 42 43 44 49 53
4 4 5 7 9 10 11 11 11 11 10 9 8 8 8 8 8 9 8 6 6 7 7 8 8 8 8 9 9 10 11 11 11 12 11 12 12 12 13 13 13 14 14 16 16 16 17 19 21 21 21 22 22 23 24 24 24 26 26 26 25 24 25 23 20 21 25 30 33 35 38 37 31 28 28 29 29 29 31 34 37 39 40 41 42 45 48 44
3 5 7 8 10 10 10 11 11 11 10 9 9 8 9 9 9 9 9 7 8 8 8 8 9 9 9 9 9 11 11 11 11 12 12 13 13 13 14 14 14 14 15 17 18 17 19 21 21 22 23 22 22 23 24 24 25 26 26 27 26 24 25 25 23 24 25 29 35 36 38 34 27 28 29 28 28 29 32 35 37 38 39 41 44 45 44 35
5 6 8 8 9 10 10 11 11 11 10 10 9 9 10 10 10 10 9 9 8 9 9 9 8 8 9 9 9 11 12 11 11 12 12 13 14 14 14 15 15 15 17 19 19 19 19 21 22 23 24 23 24 24 24 26 25 27 28 27 25 24 24 23 24 29 30 31 35 39 44 39 29 29 30 28 28 29 32 35 36 38 40 43 45 43 38 31
6 6 8 8 9 10 10 11 11 10 10 10 10 10 10 10 10 10 11 12 10 9 8 8 9 8 9 10 9 11 13 11 11 11 13 14 14 15 15 16 16 17 19 20 22 22 20 22 23 24 25 25 25 24 25 27 26 28 30 27 26 25 24 22 25 33 36 33 35 40 46 42 32 29 30 28 28 29 32 35 36 38 40 42 43 40 35 31
7 6 8 8 8 10 10 11 11 10 11 10 10 11 10 10 10 10 14 18 14 10 8 7 8 8 9 10 9 10 12 11 11 12 13 14 14 15 16 16 17 19 20 21 23 23 22 23 23 24 26 25 26 26 27 28 28 29 29 29 27 24 23 24 26 32 36 36 37 39 39 36 33 30 29 28 28 31 33 35 37 38 40 41 39 38 35 34
7 7 8 8 8 8 9 10 10 10 11 10 10 11 10 9 9 10 16 20 15 9 9 8 8 8 8 10 10 10 11 11 12 13 13 14 15 16 16 17 18 20 21 23 23 23 24 24 23 25 26 27 28 28 28 29 30 30 30 31 29 26 25 26 28 31 36 40 40 36 34 39 39 31 30 30 29 33 34 35 38 38 40 40 37 37 36 36
7 6 7 8 7 7 8 9 9 10 10 10 10 10 10 8 8 12 17 20 14 9 10 10 9 9 9 9 10 10 10 11 12 13 14 15 15 16 17 18 19 21 23 24 24 24 25 24 25 26 27 29 29 29 29 30 31 31 32 32 29 28 26 26 32 33 37 45 42 34 34 45 50 35 28 33 32 34 36 35 38 39 40 39 36 39 39 37
6 6 7 7 7 7 7 7 8 9 9 10 9 9 9 7 10 18 21 16 12 9 10 10 8 9 9 9 11 11 11 12 12 13 14 15 16 17 18 19 20 22 23 24 25 25 25 25 26 27 28 30 31 31 30 30 33 32 33 34 31 31 29 29 34 31 41 53 43 33 34 45 56 41 28 34 34 35 37 37 39 40 39 38 38 40 40 37
5 5 6 7 7 7 7 7 7 7 8 8 8 7 8 9 12 19 20 15 11 10 10 9 8 8 9 9 11 11 11 12 13 14 15 15 17 17 18 19 20 22 24 24 25 25 26 26 26 28 29 31 33 32 30 31 34 33 35 36 33 33 31 32 35 34 49 58 40 31 35 43 55 44 31 35 36 36 39 39 41 40 38 39 41 42 41 35
4 4 6 7 7 7 7 7 7 7 8 8 8 8 9 12 14 13 13 12 11 10 9 8 8 7 9 9 11 11 12 12 13 14 15 16 17 17 18 20 20 23 26 26 27 27 27 27 28 30 31 32 35 34 31 33 35 34 36 36 37 43 45 48 52 47 51 51 36 34 41 45 47 38 32 36 37 39 43 42 41 40 40 42 43 44 40 30
4 5 6 7 6 7 7 7 7 8 9 10 10 10 11 15 16 13 11 10 10 10 8 8 8 8 8 9 11 12 11 12 13 13 15 16 18 18 19 21 22 25 27 28 29 29 29 30 29 31 32 33 37 36 33 34 36 37 38 38 41 50 58 65 67 60 55 48 37 38 46 47 41 34 35 38 38 43 45 45 44 42 43 45 45 45 37 25
4 5 6 7 6 6 6 6 7 9 10 10 9 11 12 13 14 13 11 9 9 9 7 7 8 8 9 10 11 11 11 13 13 13 16 17 19 20 21 22 23 25 28 29 31 33 35 35 32 32 34 35 38 39 36 35 37 39 40 41 41 43 52 59 61 59 56 50 45 42 44 45 41 37 38 38 41 46 47 47 47 45 46 47 47 44 34 22
5 5 6 7 6 5 6 5 6 8 8 8 8 10 11 11 12 11 10 8 8 9 8 8 8 7 9 10 10 11 12 13 13 14 16 17 19 21 21 22 23 25 28 29 32 34 36 36 32 32 35 38 40 40 37 36 37 39 41 42 43 42 44 49 51 47 46 55 60 50 42 42 42 40 38 40 44 47 49 50 49 50 50 50 48 40 31 23
5 6 6 6 5 6 7 6 6 7 7 7 8 8 9 11 12 10 9 8 8 8 8 8 8 8 9 9 10 11 12 12 13 14 16 18 20 21 21 23 23 25 28 30 33 35 35 34 31 33 37 39 42 41 39 38 37 39 42 44 46 44 42 48 51 47 53 70 67 48 42 45 45 43 38 41 47 48 51 52 51 54 53 50 45 37 30 24
6 6 6 5 6 8 8 7 7 7 7 7 7 8 9 10 11 9 9 8 8 8 8 8 9 10 9 10 11 11 12 13 13 14 16 18 20 21 22 23 24 26 27 30 33 36 38 35 31 34 39 40 42 42 40 39 38 39 41 45 46 45 45 48 54 60 73 84 69 48 48 50 50 48 42 42 49 50 53 54 54 56 54 49 43 35 31 25
6 5 5 6 7 9 9 8 8 7 8 8 7 8 10 10 9 9 8 8 8 8 8 7 9 9 9 10 11 12 12 13 14 15 17 18 20 22 23 24 25 26 27 30 33 35 39 37 33 35 40 42 43 44 42 40 40 40 41 44 45 48 49 46 53 67 77 84 75 57 53 52 49 48 43 44 49 52 54 55 56 57 55 50 42 36 33 27
5 5 5 6 8 9 9 8 8 8 8 8 8 8 8 8 9 8 9 9 9 8 8 7 8 9 9 10 11 12 13 14 15 16 17 19 20 22 23 25 26 27 28 30 33 35 39 40 37 36 40 43 43 43 44 42 42 42 42 44 43 47 51 47 51 59 64 79 86 73 61 53 45 44 45 48 51 53 55 56 57 59 56 50 43 38 34 28
5 6 7 7 8 9 9 8 8 8 8 7 8 8 8 8 8 9 9 9 9 9 8 7 8 9 9 11 12 12 13 14 15 16 17 19 21 22 24 26 27 28 28 29 32 35 38 41 40 37 39 44 44 44 46 44 44 43 42 43 43 47 52 51 52 50 53 73 88 85 75 53 38 44 49 50 53 54 56 57 58 60 57 52 46 40 36 31
7 8 8 8 8 8 8 7 7 7 7 7 7 8 8 8 9 9 9 9 10 9 8 8 8 9 10 12 13 13 14 15 16 17 18 19 21 23 24 26 27 28 29 29 31 34 37 40 41 39 39 41 42 44 45 44 45 44 43 44 45 49 52 55 61 56 53 63 69 75 78 52 35 46 51 51 55 55 56 59 59 61 60 56 50 44 38 33
9 9 8 7 7 6 7 7 7 7 7 7 8 8 8 9 9 10 10 10 10 9 9 8 8 9 10 12 13 13 15 15 16 17 18 20 22 23 24 26 28 28 29 30 30 33 36 38 42 41 39 40 43 44 44 45 46 46 47 48 48 53 52 55 64 59 55 61 58 65 76 53 35 47 52 52 56 56 57 61 60 62 62 60 56 48 42 36
8 8 7 7 6 6 6 7 7 8 8 8 8 8 9 9 9 10 10 11 11 10 9 9 9 10 10 12 13 14 16 16 16 17 18 20 23 24 25 27 27 28 30 30 31 33 35 38 42 41 38 38 40 41 41 44 47 48 50 51 52 55 54 53 58 56 58 63 57 69 81 55 36 49 54 53 57 57 59 62 63 64 64 63 62 54 47 41
7 7 6 6 6 6 7 8 8 9 9 9 9 9 10 10 10 11 11 11 11 10 10 10 10 10 11 12 14 15 16 17 17 18 19 21 23 24 25 27 27 29 30 30 32 33 35 38 41 43 46 46 45 45 43 44 49 50 51 53 53 55 56 55 55 58 64 61 55 71 79 53 40 52 53 53 58 60 62 66 66 66 66 66 65 60 53 46
6 6 6 6 6 7 7 8 8 9 9 10 10 10 10 11 11 11 12 12 12 11 11 10 10 11 12 13 15 16 17 17 18 19 19 21 23 24 25 27 27 28 30 31 33 33 34 36 38 43 52 56 55 52 47 46 50 50 49 52 54 55 57 56 57 63 65 58 56 64 63 47 44 49 51 55 60 62 66 68 68 69 68 67 67 65 60 52
5 6 7 7 7 7 7 8 8 9 9 10 10 10 11 11 12 12 13 12 12 12 12 11 11 12 13 14 15 17 17 18 19 19 20 22 24 24 26 26 27 28 29 31 33 34 34 34 36 39 43 46 46 44 43 45 47 47 47 51 54 56 58 58 60 60 56 56 57 52 48 49 46 43 50 58 62 66 70 70 70 71 70 69 69 68 65 60
5 5 6 6 7 7 7 8 8 8 9 10 10 10 11 12 12 13 13 13 13 13 12 12 12 12 13 14 15 17 17 18 19 20 21 22 24 25 26 26 27 28 29 31 33 35 35 34 35 36 36 37 38 37 41 44 45 45 46 48 50 55 58 58 56 51 49 57 58 45 44 53 48 43 52 60 64 70 73 73 73 73 73 72 71 70 70 67
5 6 6 6 7 7 7 8 8 8 9 10 10 11 11 12 13 14 14 14 13 13 13 12 12 12 13 14 16 16 17 18 19 20 21 22 24 25 25 26 27 28 29 32 33 35 36 34 34 35 35 35 35 36 40 43 44 44 42 42 47 51 54 52 49 47 51 58 55 45 48 54 47 45 54 60 67 73 75 75 76 75 76 75 73 72 73 73
5 6 6 6 6 6 7 7 8 8 9 10 10 11 12 13 14 15 15 15 14 14 13 13 12 12 13 14 15 16 18 19 20 20 22 22 24 25 25 25 27 28 29 32 33 35 36 35 34 37 35 31 32 36 39 41 42 38 35 39 44 46 48 48 46 47 52 55 49 47 53 51 42 46 56 61 68 73 74 76 77 78 80 77 75 76 76 77
5 5 6 6 6 6 7 7 8 9 9 10 11 11 13 14 15 16 15 15 15 14 14 13 13 13 13 14 14 16 18 19 20 21 22 22 23 24 25 25 26 28 29 31 33 34 35 35 35 37 36 30 30 35 38 41 42 36 31 36 41 43 44 45 45 47 52 51 47 51 57 47 36 46 56 56 62 68 69 72 75 78 81 79 78 81 80 80
5 5 5 5 6 6 7 8 9 10 10 11 12 12 13 14 15 16 16 16 16 15 14 14 14 14 14 14 15 17 19 20 20 21 22 22 23 23 24 25 26 28 28 30 32 32 34 36 35 38 40 33 30 36 38 38 38 33 30 32 36 40 42 41 42 45 47 48 49 54 54 40 33 45 51 49 54 61 62 65 70 76 81 82 82 85 85 84
5 5 5 6 6 7 9 9 10 11 11 12 12 13 14 14 16 17 17 17 17 16 15 15 14 15 14 15 17 18 19 20 20 21 21 22 22 22 23 24 25 27 28 30 32 32 34 35 35 39 42 35 32 37 37 35 35 31 28 31 33 37 39 39 37 37 39 45 51 49 42 34 36 44 47 46 49 53 54 56 63 73 80 81 83 87 89 87
Wind_Speed
18 12 7 8 6 4 3 5 5 7 8 8 10 11 13 14 13 13 14 14 14 15 15 15 14 14 14 13 13 12 15 20 18 10 9 13 19 19 17 16 15 14 13 13 13 13 13 13 12 12 14 14 13 13 13 12 10 9 10 10 10 11 13 13 13 14 12 15 21 22 22 25 24 25 28 27 28 29 30 32 32 32 31 30 31 32 35 37
20 11 8 9 6 5 1 4 5 6 7 9 10 12 13 13 13 13 13 13 13 13 13 14 14 14 14 14 14 14 17 22 15 9 14 19 19 17 16 15 14 13 13 13 13 13 12 12 13 14 14 12 12 13 12 11 10 11 12 13 14 14 14 12 12 10 10 18 22 21 24 27 24 24 25 24 26 29 29 31 33 34 33 32 32 35 37 37
19 12 10 9 7 6 1 5 5 6 7 9 11 12 14 13 13 13 13 12 12 12 12 13 14 14 15 16 16 15 18 20 13 14 20 19 17 16 14 13 13 13 13 12 12 11 11 11 13 14 13 12 12 12 11 11 11 13 13 15 16 14 13 10 9 8 13 22 22 23 29 28 27 26 24 23 24 25 27 31 34 35 34 32 33 36 37 35
17 12 10 9 8 5 3 5 5 7 7 9 11 12 13 13 12 12 12 11 11 12 12 12 13 13 15 15 15 15 17 17 14 18 19 16 16 15 13 13 13 13 13 12 11 11 11 12 13 12 11 12 13 11 10 12 12 14 14 16 16 13 13 11 10 12 19 26 24 26 30 29 29 26 23 22 22 24 28 32 35 35 34 32 34 37 37 35
15 12 10 8 7 4 5 5 6 7 7 9 11 12 13 12 12 11 10 11 11 12 13 12 10 10 10 10 11 10 11 15 17 18 17 16 16 13 13 14 13 12 13 13 12 11 12 13 13 11 11 13 13 11 12 13 13 14 14 14 14 15 16 13 13 18 23 26 26 27 29 30 29 25 22 22 22 26 30 33 35 36 34 32 34 36 37 36
13 12 8 7 6 4 5 6 7 7 8 10 12 12 12 11 11 11 11 11 11 13 14 13 11 11 10 11 14 12 11 14 16 16 15 16 15 13 14 14 12 12 14 13 12 12 13 13 11 11 12 13 14 13 13 13 14 13 12 13 16 18 18 15 16 21 23 25 27 27 28 30 27 24 24 24 26 29 30 32 35 36 35 33 33 34 36 36
12 11 7 6 5 5 5 7 7 8 9 11 11 12 11 10 11 11 11 11 12 13 14 14 13 13 11 14 18 14 12 15 15 15 14 15 14 13 15 14 12 13 13 12 13 13 13 12 11 12 13 14 14 13 13 14 15 14 14 16 18 20 19 16 16 21 23 25 27 27 29 28 25 24 25 26 28 30 30 31 34 36 35 33 32 33 35 37
11 10 5 5 5 5 6 8 8 9 10 11 11 11 9 9 9 10 11 11 12 13 13 12 11 14 13 14 16 10 11 15 14 13 13 14 14 14 15 14 12 13 12 12 13 13 12 11 12 13 14 15 13 12 13 13 14 15 16 18 18 20 20 17 17 22 23 26 27 27 29 26 24 24 24 26 28 29 29 31 33 35 36 35 33 33 35 39
10 8 5 5 5 5 7 8 9 10 10 10 10 9 9 9 8 9 10 11 12 12 13 11 12 15 13 14 14 10 11 14 13 12 13 14 14 15 15 13 13 13 12 13 13 12 11 11 13 15 15 16 12 10 13 12 13 17 16 17 18 20 21 17 19 22 22 26 27 28 30 25 23 24 24 26 28 29 30 32 33 35 37 37 37 37 38 41
10 8 5 5 4 6 8 8 10 10 10 10 9 8 8 8 9 9 10 10 10 11 11 11 12 14 14 14 11 11 14 13 12 12 12 14 15 16 14 13 13 12 12 13 12 11 11 12 14 16 15 15 11 8 12 13 15 17 15 16 17 19 19 16 19 20 21 25 27 29 29 25 23 24 25 27 28 30 31 33 35 37 39 41 42 41 41 42
12 7 6 4 4 7 8 8 10 10 9 9 9 8 8 9 10 9 10 10 10 10 9 10 10 12 16 12 6 10 15 13 13 13 13 15 14 14 13 13 13 11 12 13 12 12 13 14 16 15 14 14 11 9 12 15 17 17 15 15 16 16 14 14 18 19 20 25 28 29 27 23 24 24 25 27 29 31 33 35 37 38 40 41 42 42 43 43
13 5 4 3 6 8 9 10 11 11 10 9 9 9 9 9 10 10 10 10 9 9 8 9 10 12 15 9 5 12 15 12 13 14 15 15 13 13 14 14 13 12 12 13 14 15 14 16 16 14 13 14 13 9 12 17 18 15 12 12 13 12 10 13 17 17 20 24 26 28 24 21 23 23 25 27 29 31 33 35 36 38 39 40 41 43 44 46
11 2 3 6 8 10 10 11 12 11 10 9 9 10 9 10 11 11 10 10 10 9 10 10 11 13 14 9 10 14 13 12 13 13 14 14 13 14 15 15 13 12 12 13 15 14 13 15 14 13 13 15 14 10 14 18 17 14 10 11 14 12 9 10 14 15 19 22 22 23 21 20 23 23 25 27 29 31 32 35 35 36 38 39 41 41 43 49
7 2 4 8 10 11 10 10 11 10 9 9 9 10 10 12 12 11 11 11 10 10 11 11 10 12 9 8 12 13 12 12 13 13 12 13 14 15 15 15 14 13 13 13 14 13 13 15 13 12 13 15 15 13 16 17 14 15 11 12 19 19 15 8 10 14 18 21 21 20 19 21 25 24 25 27 29 31 32 34 35 36 37 38 39 40 44 52
4 4 7 10 10 10 9 9 9 9 9 9 10 10 10 12 12 12 12 12 12 13 13 12 11 10 6 8 14 14 13 12 12 12 12 14 15 15 15 15 15 13 11 11 13 12 12 14 11 12 15 16 17 14 15 15 15 17 15 15 21 22 19 12 11 15 18 20 20 18 19 22 25 25 25 27 29 31 33 34 35 36 36 38 38 40 46 52
3 7 10 11 11 10 9 9 10 10 10 10 10 10 10 11 12 12 12 12 13 14 13 11 11 9 8 12 15 13 13 12 11 12 13 13 13 15 15 15 14 12 11 11 13 13 11 12 11 14 16 16 19 15 11 14 18 20 19 21 23 23 21 15 12 14 18 20 18 15 18 22 24 24 24 27 29 31 33 34 35 36 36 37 38 42 47 51
4 9 11 11 11 12 12 12 12 10 10 11 10 11 12 11 11 12 12 12 13 14 12 10 10 10 11 14 14 12 12 12 11 12 12 12 13 15 15 14 14 12 12 13 14 14 12 12 14 14 15 16 20 19 12 14 20 21 22 23 24 25 23 18 14 14 18 20 17 13 17 20 22 22 24 27 29 30 32 33 34 35 36 36 37 42 47 50
6 10 11 11 11 12 12 12 11 10 9 10 11 12 12 12 13 13 13 12 12 12 10 9 10 10 13 14 12 13 13 12 12 12 11 12 13 14 14 13 14 12 12 13 11 12 12 12 12 13 18 20 23 26 21 17 19 20 21 23 24 26 23 18 14 15 18 20 17 14 16 20 20 22 25 27 28 30 32 33 33 34 34 34 38 43 47 49
7 10 11 11 11 11 10 10 9 8 9 10 11 12 12 13 13 12 10 10 10 9 9 11 11 12 14 13 11 13 12 12 12 12 12 12 12 13 13 13 14 13 12 12 10 12 14 12 13 17 23 25 26 27 24 19 18 19 19 20 23 28 24 14 12 15 18 20 16 13 16 19 20 22 26 27 28 30 32 32 32 32 32 34 39 44 47 45
8 10 12 11 10 10 10 10 9 9 10 10 11 11 12 12 10 10 10 9 9 10 11 12 12 12 13 11 11 12 11 12 13 12 12 12 13 12 12 13 15 13 10 11 13 14 14 14 16 21 23 25 26 25 23 21 19 20 18 17 22 27 23 12 11 14 15 20 15 11 18 19 19 24 26 27 28 30 30 31 31 31 32 36 39 43 45 41
9 10 13 12 10 11 12 11 10 11 11 11 11 12 12 12 10 10 10 10 10 10 10 10 11 11 11 10 11 10 11 12 12 12 12 13 13 12 13 14 13 12 11 12 14 14 12 15 19 19 19 21 23 23 23 22 21 21 19 19 22 24 20 12 12 15 13 18 15 12 18 18 20 25 25 26 28 29 29 29 29 30 33 36 39 43 43 39
10 12 13 13 12 12 12 11 11 11 10 11 12 12 12 12 11 10 8 9 10 9 9 10 11 10 9 8 8 10 11 11 11 12 13 12 12 12 13 13 13 14 13 11 13 14 14 17 18 16 18 20 21 22 23 22 23 22 20 23 24 22 19 11 11 16 12 15 16 12 15 18 23 25 23 25 27 27 28 28 28 30 33 36 40 43 42 41
12 12 12 13 13 11 11 10 9 9 9 10 11 12 12 11 11 9 7 7 9 9 9 10 10 8 7 7 8 8 9 9 10 11 13 12 12 13 13 14 14 14 14 11 11 14 16 17 17 17 18 18 19 21 22 22 23 23 23 25 25 22 19 14 16 18 12 12 14 12 16 22 22 21 22 26 26 26 27 27 27 31 35 38 41 43 44 48
13 13 12 12 13 11 10 9 8 9 9 10 11 12 11 10 9 8 7 7 8 9 9 10 9 7 7 7 8 6 5 9 11 11 13 14 14 15 14 15 15 15 15 13 12 14 16 16 17 18 18 18 18 20 22 24 24 24 26 26 24 20 16 15 18 19 15 9 8 14 21 20 16 19 25 26 25 27 26 26 29 33 37 40 42 43 47 52
13 12 12 11 11 11 9 8 9 10 11 12 12 11 9 8 6 5 5 5 6 6 6 6 6 6 7 6 7 6 5 8 11 12 14 15 15 16 15 16 15 15 18 17 13 13 13 14 18 19 20 20 19 20 23 24 25 25 26 26 22 19 15 13 13 18 20 12 10 18 16 10 16 25 26 24 25 26 25 26 31 35 38 40 41 45 50 52
13 12 11 10 10 9 8 8 8 10 11 11 11 9 7 5 4 3 2 2 3 5 4 2 2 3 5 5 7 8 6 8 12 13 15 15 16 16 15 16 16 15 18 18 14 13 12 13 17 20 21 21 21 21 22 24 25 25 27 26 20 17 15 11 10 15 17 14 15 16 10 11 25 29 24 24 25 24 26 29 33 37 40 41 43 48 52 51
13 11 10 9 8 8 8 7 7 9 10 9 9 6 4 3 2 0 1 2 2 2 3 2 2 1 3 4 6 8 7 8 13 13 14 15 16 15 15 17 16 14 17 18 16 15 12 11 15 19 20 21 22 22 22 23 24 25 28 28 21 16 13 9 10 12 13 17 17 12 11 16 24 27 24 22 22 24 30 33 36 39 40 42 46 50 51 50
13 11 9 7 7 7 6 6 7 9 9 8 7 4 1 1 3 3 2 1 2 3 2 2 2 0 1 4 6 8 8 10 12 12 14 14 15 15 15 17 16 14 15 17 17 17 14 12 13 17 19 22 23 22 22 22 23 26 29 30 24 16 12 8 9 10 10 15 14 10 13 13 18 24 21 18 23 28 33 35 38 40 40 43 47 49 49 50
13 11 9 6 6 5 5 5 6 8 9 8 8 5 4 5 4 3 2 1 2 3 2 0 0 1 1 3 5 7 9 10 11 12 13 13 14 15 14 16 16 14 15 18 19 18 17 14 11 14 18 21 23 22 22 22 23 26 29 32 26 13 10 7 7 9 7 10 11 8 12 11 14 21 17 18 26 31 34 37 37 38 40 44 47 48 50 51
13 11 9 6 5 4 4 5 6 7 8 8 9 8 7 6 4 2 2 2 3 4 5 3 1 2 2 3 5 7 8 9 11 12 12 13 14 14 13 15 16 15 16 20 20 19 19 15 11 13 17 20 23 21 20 22 23 26 31 35 27 13 7 4 5 7 5 6 6 5 13 15 10 13 18 23 28 31 35 36 35 37 40 44 47 49 51 53
13 11 9 6 4 3 3 4 5 6 8 8 8 8 7 6 5 3 2 3 4 5 6 5 4 3 3 3 4 7 8 8 10 11 11 12 13 13 14 16 17 15 15 19 20 19 19 15 11 13 17 19 23 22 19 20 22 24 30 35 28 14 5 2 3 3 3 5 4 6 20 19 8 12 22 26 29 32 35 35 36 39 42 45 48 50 52 54
13 12 9 6 3 3 3 4 4 5 7 7 7 7 6 5 6 6 4 3 3 4 5 5 4 4 3 3 4 6 7 7 9 10 11 12 12 14 16 17 19 17 15 19 20 19 21 16 10 13 17 19 24 24 19 19 21 23 29 34 24 10 6 3 1 2 5 6 7 15 25 17 12 20 26 25 29 32 34 37 39 41 43 46 48 51 53 54
12 11 9 6 4 4 4 4 4 5 5 5 5 6 7 5 4 6 6 4 4 4 5 6 5 4 4 4 4 6 7 8 10 11 12 13 13 15 17 18 19 17 17 20 20 21 22 16 11 14 16 18 25 26 20 19 21 23 28 31 18 5 5 5 3 4 5 11 20 25 20 13 16 25 27 25 30 32 36 40 42 43 45 47 49 51 52 52
12 11 9 6 4 4 5 4 5 6 5 5 5 6 7 6 5 5 5 6 7 5 4 6 6 5 5 4 4 6 8 8 9 11 12 13 13 14 16 17 18 18 18 20 19 20 18 13 13 16 16 19 25 25 21 20 19 21 24 24 16 6 2 2 4 3 8 21 31 22 9 11 20 28 28 26 29 33 37 42 43 45 47 47 50 51 51 51
11 10 8 6 5 5 4 5 6 6 6 6 6 7 8 8 6 6 6 7 8 8 6 6 6 6 6 6 6 7 8 8 9 11 11 12 13 14 15 16 17 18 19 19 18 18 17 16 16 16 17 21 24 24 23 19 16 18 21 21 19 10 2 6 8 10 15 20 20 12 12 23 29 27 25 25 30 34 38 44 45 45 47 48 49 50 49 50
10 9 7 6 6 5 4 4 5 7 7 7 8 9 9 8 7 7 7 6 7 8 8 7 7 6 6 7 6 7 8 8 9 10 11 11 11 13 15 16 16 17 18 19 17 16 19 19 15 14 20 23 23 24 23 18 15 17 18 20 20 13 7 8 9 11 10 8 9 11 19 34 32 23 23 28 33 36 39 44 45 45 47 48 48 49 48 49
9 7 6 6 6 4 4 4 5 6 7 8 9 9 9 9 9 8 8 7 7 8 8 8 7 6 6 5 6 7 8 8 9 10 11 11 11 13 15 15 16 17 17 18 17 16 19 19 14 15 22 24 24 23 21 18 16 16 16 18 20 13 8 10 7 6 3 3 9 11 19 33 28 18 26 33 33 36 41 44 44 46 48 48 48 48 47 48
8 7 6 6 6 5 4 4 5 6 6 7 8 8 9 9 9 9 8 8 7 8 9 9 8 7 7 7 7 7 7 8 9 10 10 10 11 13 14 14 16 16 17 18 17 18 20 17 13 18 24 25 23 21 19 18 17 17 15 16 18 10 5 9 7 4 3 2 8 12 17 26 25 21 30 33 32 38 43 43 45 47 48 47 48 47 47 48
7 6 6 6 6 6 6 5 6 6 7 8 8 8 8 8 8 8 9 9 9 9 8 9 8 8 8 8 7 7 8 9 9 9 9 10 11 12 13 14 15 16 17 17 17 19 20 14 11 19 27 26 22 19 18 18 18 18 17 16 17 11 8 11 7 5 4 1 5 12 14 22 26 26 30 33 36 42 43 44 47 47 47 47 46 47 47 47
6 6 5 6 7 7 7 7 7 7 8 9 8 8 9 9 9 9 9 9 9 9 8 8 9 9 9 8 8 8 9 9 9 9 8 9 11 11 11 13 15 16 17 17 18 19 20 14 13 20 26 25 22 19 18 19 18 19 19 17 18 16 14 14 11 10 7 3 1 3 11 27 30 24 29 39 42 44 44 46 47 46 45 45 45 46 46 46
5 5 5 6 6 7 7 7 8 8 9 9 9 10 10 11 10 9 9 9 9 9 9 9 9 9 10 9 8 9 9 9 9 8 8 9 10 10 11 13 15 15 16 18 18 18 19 17 16 21 26 24 21 18 16 17 16 19 21 20 20 20 16 10 7 9 9 8 6 2 10 31 34 27 37 46 43 44 46 45 46 45 44 44 44 44 45 46
5 5 5 5 6 6 7 7 7 8 9 10 10 10 11 11 10 9 9 9 10 10 10 10 10 10 10 10 10 9 8 9 9 7 8 9 10 11 12 13 14 15 16 17 17 19 20 18 18 23 26 22 16 14 12 13 15 17 20 22 22 21 18 10 6 10 10 11 14 7 10 28 37 36 44 47 43 45 46 44 46 45 43 43 43 44 44 45
5 6 5 5 6 6 7 7 7 8 9 9 10 11 11 10 10 10 10 10 10 11 11 11 10 10 11 11 10 9 8 8 8 7 8 9 10 12 12 13 14 15 16 16 16 19 19 17 20 27 28 21 14 12 11 12 16 19 22 24 25 23 22 17 15 18 15 16 16 6 9 27 42 44 46 46 44 44 43 44 46 44 44 44 42 43 44 44
6 6 6 6 6 6 6 6 7 8 9 9 10 10 10 10 10 10 10 10 11 11 11 11 11 11 11 10 10 10 8 7 7 8 9 9 11 13 12 14 15 14 15 15 15 17 16 16 21 24 21 18 14 11 13 16 19 24 27 28 27 25 22 19 19 17 14 17 15 8 11 34 48 46 46 45 43 43 42 43 46 45 45 44 43 43 43 44
6 6 6 5 6 6 6 7 7 8 9 9 10 10 10 10 10 10 10 11 11 11 12 12 12 12 11 11 11 10 9 8 8 9 10 11 12 13 13 14 15 16 16 14 14 16 15 17 20 16 9 8 10 13 19 24 27 29 30 28 28 27 23 20 17 14 14 18 17 15 22 45 52 45 44 44 40 41 43 44 46 47 45 44 44 43 43 44
5 5 4 4 5 6 6 6 7 8 9 10 11 10 10 10 10 10 11 11 12 12 13 13 12 12 12 12 11 10 10 10 9 10 11 11 12 13 14 14 16 17 16 15 15 15 16 18 19 17 16 16 20 23 24 25 29 30 29 27 27 27 25 22 19 19 20 21 26 31 37 48 50 46 43 42 39 41 45 46 48 48 46 45 44 43 43 43
5 5 4 5 5 5 6 6 7 9 10 10 11 11 10 10 10 10 11 11 11 12 13 14 14 14 13 12 12 11 12 11 11 11 12 12 13 14 15 16 17 17 16 16 16 15 18 20 18 20 25 26 28 29 23 21 27 31 29 27 26 25 25 25 24 26 26 20 27 40 41 44 49 48 42 41 43 45 48 48 48 48 47 46 45 43 43 43
6 5 5 6 6 6 6 8 9 10 10 11 11 11 11 10 9 9 10 11 11 12 13 14 13 13 13 13 13 13 13 12 12 12 12 13 14 14 16 17 17 17 17 16 17 17 19 21 20 22 27 29 28 26 22 22 27 30 28 24 24 24 26 29 29 31 30 27 33 44 44 46 49 46 41 43 44 46 49 48 48 49 47 46 46 44 43 42
6 6 6 6 7 7 8 8 9 10 11 11 11 11 10 10 10 10 10 11 12 12 13 13 13 13 13 13 14 13 12 12 13 13 13 14 15 15 17 17 16 17 18 17 18 19 18 21 22 23 29 31 25 22 23 26 30 32 24 17 18 21 25 29 31 31 32 37 41 43 45 47 44 40 43 46 45 47 50 49 49 48 46 46 46 44 44 43
6 6 6 6 7 8 8 9 10 11 11 11 11 10 10 10 10 10 10 11 12 13 13 13 12 13 14 14 15 14 13 13 14 14 15 16 16 17 18 18 17 19 19 18 19 18 18 22 23 25 31 31 24 23 27 29 34 33 20 12 15 19 22 27 30 29 31 37 40 39 43 47 43 40 44 47 47 48 50 49 50 48 46 46 46 46 45 44
5 6 6 7 8 8 9 10 11 12 12 11 11 10 10 10 9 10 11 11 12 12 13 13 13 14 15 14 14 14 14 14 14 15 16 17 17 18 18 19 20 20 20 19 18 19 19 22 24 25 29 31 28 28 31 33 34 27 16 16 18 18 21 26 28 29 30 34 37 37 41 44 46 45 47 48 48 49 50 50 50 47 45 46 47 47 46 45
5 6 7 8 8 9 10 11 12 12 12 11 11 10 10 10 10 10 11 11 11 12 12 13 13 14 15 14 14 14 14 15 16 16 17 18 19 20 20 21 20 20 21 18 18 20 19 21 24 22 25 32 32 30 35 35 24 15 18 22 20 18 21 25 30 33 32 33 35 36 39 44 47 47 48 49 49 50 51 51 49 47 46 47 48 48 47 46
Wind_Direction
162 154 165 170 161 154 100 60 64 58 61 72 80 89 94 96 98 101 99 96 92 87 81 79 81 84 86 89 92 95 94 82 69 78 102 77 65 60 58 55 53 51 48 50 49 44 45 42 42 48 51 50 47 48 45 48 47 33 33 38 42 33 19 9 359 358 1 353 343 343 351 352 348 342 341 337 334 336 337 337 336 336 335 332 330 329 328 326
172 170 163 162 160 165 110 52 63 56 62 75 85 91 93 95 97 99 100 97 95 92 87 83 86 91 92 90 89 88 87 85 80 85 79 63 59 56 53 52 49 46 43 43 43 42 41 40 43 49 49 45 44 45 43 46 38 28 25 30 40 34 22 5 349 353 354 352 347 345 351 354 353 346 342 339 338 340 338 336 337 337 335 334 336 336 332 328
172 170 151 145 147 159 98 53 61 58 69 85 94 95 95 96 95 96 97 95 93 92 94 91 88 92 95 90 85 82 79 81 80 72 68 62 61 57 54 53 50 47 43 40 39 39 40 40 41 46 46 38 39 42 42 39 29 25 17 23 37 31 18 2 352 357 351 355 351 344 350 354 352 349 349 346 340 338 337 338 339 337 335 335 336 336 332 328
164 158 140 131 140 144 71 62 62 64 81 95 99 98 97 97 95 96 95 92 89 89 96 99 95 95 96 91 84 78 74 78 76 67 65 64 61 57 56 52 47 46 42 37 34 34 34 36 39 41 37 30 34 33 34 35 26 21 15 25 34 22 15 14 11 3 356 357 350 344 349 351 350 352 353 348 341 337 339 341 339 337 334 333 332 333 333 328
156 151 135 118 124 99 58 68 65 74 91 98 100 99 100 99 98 99 96 94 92 91 91 96 102 99 92 87 85 82 77 72 67 65 63 62 57 52 51 47 42 40 38 30 24 28 27 30 38 38 29 26 30 25 24 26 20 19 22 27 23 14 16 16 8 359 358 355 344 344 348 349 351 353 353 349 344 341 340 341 339 336 332 329 329 330 331 327
155 152 134 100 100 68 57 75 78 89 100 101 103 104 104 101 99 99 97 94 92 90 87 89 98 96 92 90 81 74 77 74 68 66 62 58 53 47 46 40 35 34 33 25 19 26 25 24 31 32 24 20 24 27 29 26 19 19 24 19 9 9 13 13 4 355 355 348 340 345 349 349 352 354 353 350 346 343 340 338 337 335 329 325 327 328 328 327
158 155 130 84 82 64 67 86 92 102 105 105 107 109 109 103 101 99 97 94 89 88 87 88 92 91 90 87 78 69 76 78 71 65 58 56 49 43 42 32 28 33 31 25 23 27 25 21 21 23 19 15 22 27 28 24 19 17 17 14 7 4 8 12 1 349 347 343 341 347 348 351 355 354 353 350 347 342 337 335 335 334 329 323 323 326 328 328
160 155 118 71 67 65 83 96 103 108 106 106 108 112 112 106 104 102 101 97 90 89 91 92 94 88 80 80 82 77 72 71 67 63 56 52 43 38 37 26 26 33 28 23 25 24 21 17 17 21 16 14 21 24 22 19 17 16 16 15 6 1 4 6 353 343 344 343 343 346 347 353 357 354 352 350 345 338 333 331 331 332 329 324 322 326 329 329
161 151 96 60 58 73 96 103 109 109 106 106 109 112 112 109 107 107 106 100 95 95 98 100 95 89 82 80 83 78 68 66 62 58 51 44 37 35 31 22 26 30 23 23 24 21 18 15 18 21 15 15 20 22 21 19 19 19 20 20 8 0 358 350 343 341 342 341 341 343 345 355 359 353 352 349 342 335 330 328 329 331 330 328 326 326 327 326
162 137 73 55 62 90 103 110 111 107 108 109 110 108 107 107 107 109 106 100 99 100 102 101 97 93 83 72 71 71 66 62 57 49 44 39 33 31 24 20 25 25 22 22 20 19 18 18 22 20 15 15 15 15 16 13 21 25 24 22 11 359 348 337 336 335 337 338 340 343 345 352 357 353 351 346 339 335 332 331 331 330 330 329 327 324 323 322
154 115 54 63 85 101 108 111 109 107 112 112 110 105 98 101 103 106 104 100 98 98 103 101 101 98 82 67 57 69 65 58 53 44 40 38 31 26 21 20 24 21 19 17 15 18 17 19 22 18 16 16 9 8 9 12 23 26 23 20 10 354 338 326 328 327 335 339 339 341 343 348 353 353 348 342 339 338 335 334 333 330 328 326 325 323 320 323
148 100 38 94 99 106 109 108 110 112 117 115 113 105 98 100 100 101 101 99 96 95 101 101 101 95 87 80 68 68 63 55 49 41 39 38 29 23 21 21 24 20 18 15 15 19 18 21 22 13 14 16 13 13 15 20 22 18 15 15 7 356 338 318 323 330 333 335 335 337 339 345 350 349 344 341 340 340 337 335 332 328 323 322 324 324 323 327
150 110 61 112 105 107 107 108 113 115 119 119 116 109 103 101 98 99 99 97 98 100 101 103 103 95 90 84 71 66 61 56 50 42 39 37 29 24 22 21 21 19 19 17 17 18 15 22 22 11 15 18 19 22 22 24 17 5 3 5 7 12 4 318 316 328 324 326 335 335 331 338 348 347 342 340 339 338 336 333 329 324 320 320 323 324 328 332
152 158 111 114 107 105 106 112 117 119 124 124 119 115 109 104 99 99 102 103 106 108 102 99 93 90 91 76 66 62 54 54 50 41 36 34 29 25 22 20 20 19 14 15 21 16 14 21 14 8 22 23 22 23 22 23 11 2 3 5 7 9 11 345 317 326 324 328 337 331 323 334 348 348 340 336 335 334 333 330 325 321 318 318 320 324 330 334
149 148 124 115 107 103 107 114 120 125 132 128 122 123 118 107 102 104 107 109 109 104 96 91 87 86 96 72 60 54 48 47 45 38 33 32 29 25 22 18 20 17 6 11 20 16 21 23 3 8 29 30 27 24 20 21 11 8 10 10 9 4 3 1 335 330 328 330 336 329 320 334 348 344 336 332 331 331 330 328 323 319 318 317 319 324 331 336
145 138 126 116 107 105 105 107 114 127 136 131 124 126 123 109 106 110 111 111 108 100 95 96 96 92 88 72 60 55 50 47 45 37 33 31 29 26 22 17 17 14 5 10 15 14 23 22 10 21 28 28 29 27 15 13 15 16 12 7 5 359 355 356 349 335 325 329 337 328 316 331 343 337 332 330 327 328 328 326 322 319 318 318 321 325 331 337
139 135 126 117 114 111 104 100 105 120 132 132 127 124 121 114 113 116 115 113 106 102 105 106 100 88 79 71 65 61 52 45 43 38 34 29 30 27 21 15 14 14 10 12 14 11 17 19 16 20 19 21 27 29 21 8 11 14 11 5 360 358 353 346 347 337 323 327 333 321 312 326 333 329 329 328 325 326 326 324 321 319 319 320 322 326 332 336
139 134 126 123 124 119 108 103 101 109 125 134 131 124 121 121 122 122 119 117 109 105 106 99 91 81 74 70 65 60 50 44 41 38 33 29 31 27 17 12 14 17 15 15 11 4 16 20 8 7 12 17 22 26 28 15 5 6 7 2 353 351 350 342 342 337 322 323 326 317 316 321 322 324 328 327 325 325 324 322 320 318 319 320 323 328 333 335
138 135 131 129 131 124 114 111 106 108 122 131 131 128 128 129 128 127 123 120 116 109 99 90 86 82 77 71 63 56 47 40 38 35 30 28 32 26 14 9 13 18 17 15 3 2 14 4 347 0 12 18 21 23 26 18 6 2 1 358 346 340 344 343 339 338 323 319 323 316 315 315 313 321 326 325 325 324 322 319 317 318 319 322 327 330 333 334
143 142 135 132 131 124 117 118 114 115 122 125 130 133 135 134 131 129 122 119 117 110 103 94 86 80 75 67 57 53 45 37 35 32 26 26 29 24 14 11 14 15 10 8 5 7 4 351 360 13 16 20 22 22 21 16 9 5 358 352 343 337 343 348 340 346 326 316 325 317 312 312 308 317 323 324 324 322 320 316 316 318 321 324 329 331 332 334
149 147 138 132 126 120 120 123 119 119 122 124 129 133 135 133 124 121 121 121 118 110 102 91 78 68 62 57 53 49 43 36 32 28 23 24 26 18 13 13 13 10 5 5 10 7 351 356 17 19 15 18 20 20 16 13 11 8 358 344 339 337 342 350 345 348 328 311 323 315 308 308 307 315 321 323 324 321 317 316 317 319 323 326 328 329 332 333
148 147 139 130 124 122 124 126 125 125 127 127 130 129 130 128 119 116 123 125 117 108 97 82 70 59 51 46 39 40 38 29 26 24 21 23 22 17 14 13 9 9 10 6 4 2 357 12 22 13 12 17 16 16 14 12 11 9 0 344 338 338 339 347 348 347 333 311 318 314 299 300 305 312 320 323 323 320 317 317 318 319 323 324 326 330 332 333
147 144 136 129 126 127 129 129 130 134 134 132 131 126 123 123 118 112 116 119 109 99 89 76 66 55 48 38 27 35 34 22 20 19 18 20 18 17 15 9 9 12 12 5 357 3 12 20 18 9 12 12 9 10 9 11 13 10 3 348 339 340 337 335 338 346 347 314 310 315 300 297 303 312 323 326 323 321 318 317 319 320 323 324 327 332 334 332
145 139 135 133 130 133 135 135 138 142 140 133 129 124 120 120 117 110 112 114 102 93 87 79 70 50 43 38 25 25 18 13 15 13 16 17 14 14 12 6 8 10 10 10 2 3 12 15 10 9 10 5 2 5 4 6 12 11 4 352 340 337 332 322 325 335 348 341 322 323 308 297 307 321 327 328 325 323 320 318 320 322 325 327 329 333 333 330
144 139 136 135 134 136 139 144 147 145 141 134 129 124 119 116 115 118 120 109 92 86 86 82 70 43 36 36 24 15 2 6 10 10 15 15 11 10 8 4 4 6 8 11 7 0 1 3 6 8 5 1 358 359 1 2 6 10 5 354 340 330 324 317 316 324 334 351 352 334 321 299 312 324 329 329 326 324 321 320 323 325 327 328 331 331 329 327
145 142 136 134 135 136 139 149 155 150 144 139 135 129 117 103 99 120 132 135 98 68 59 64 53 27 28 29 18 13 4 1 4 9 13 11 8 7 4 1 1 5 7 8 7 358 350 352 4 5 0 358 355 356 0 359 1 5 2 356 344 329 324 316 314 319 320 332 337 328 321 305 310 320 330 329 328 326 323 325 326 327 329 329 329 327 325 327
148 145 137 135 136 136 142 154 163 161 156 152 149 138 116 83 62 128 297 262 234 10 23 11 359 2 28 23 13 13 11 4 3 7 9 7 6 4 0 1 2 2 4 6 4 357 348 346 358 1 356 353 353 354 356 357 357 357 357 358 350 333 328 317 310 312 304 315 324 307 299 304 304 317 329 327 329 330 327 329 328 328 329 326 324 324 326 331
154 149 141 140 143 141 145 161 174 174 173 174 176 173 165 357 334 265 271 297 256 278 298 312 325 278 30 14 10 12 9 5 4 4 5 3 2 1 357 1 2 359 1 4 3 358 351 343 347 353 353 353 355 354 351 352 352 351 354 359 355 335 325 319 305 308 302 306 308 297 309 309 296 312 330 329 329 334 331 329 328 326 324 321 322 326 330 334
161 157 151 148 148 147 152 167 183 187 192 201 209 222 261 296 299 259 250 268 244 244 232 208 60 213 295 352 3 4 2 2 2 1 2 358 357 358 357 359 3 2 1 1 2 360 352 342 335 342 348 354 356 350 345 347 347 347 352 357 358 341 319 326 311 308 301 288 285 298 334 337 304 313 333 333 329 333 331 329 327 322 319 321 326 331 333 336
169 167 165 157 154 161 167 177 190 201 212 223 230 244 272 277 255 220 228 252 246 224 209 213 275 261 271 321 349 354 356 358 357 358 357 353 354 357 356 359 3 4 2 0 358 356 352 342 330 339 345 350 353 349 344 344 343 346 351 355 360 356 332 340 322 302 273 279 274 274 331 336 310 313 329 329 329 331 329 328 324 320 321 327 332 335 336 337
176 178 178 172 169 179 187 190 196 212 226 235 242 252 262 244 214 200 219 251 250 225 214 225 252 251 262 306 337 347 350 352 355 358 351 349 352 351 353 1 4 3 1 359 356 354 354 346 335 341 341 343 348 347 342 343 345 348 352 355 359 360 348 342 332 304 222 277 274 281 320 320 274 298 323 325 328 331 331 330 326 325 330 334 336 337 337 336
180 185 189 193 200 206 213 208 205 220 231 238 243 239 233 220 220 232 241 247 238 226 214 214 237 249 262 298 324 339 344 344 351 353 346 348 350 349 356 2 3 5 359 355 354 354 356 351 340 340 339 340 343 344 344 346 348 349 353 359 3 358 349 356 337 302 252 258 289 312 319 310 272 302 322 325 327 331 334 334 333 334 336 337 338 337 336 335
184 191 199 211 229 230 225 213 207 213 218 226 226 220 218 215 231 238 236 239 246 249 233 229 249 263 266 290 312 331 338 340 346 347 345 349 350 353 1 1 2 6 359 353 353 352 356 357 348 341 339 339 339 342 346 346 348 351 356 5 12 17 1 350 308 314 281 280 306 316 315 296 295 317 327 328 329 334 336 336 337 338 339 339 338 336 334 334
189 198 209 226 242 237 226 210 200 203 209 223 226 222 220 223 242 250 251 259 257 256 254 242 245 253 260 280 306 327 336 338 339 342 345 348 350 355 0 359 358 1 358 357 355 351 352 351 345 342 339 338 339 341 342 341 345 352 358 4 9 28 57 308 294 309 287 296 309 315 310 297 310 323 328 329 333 336 335 337 340 340 340 338 335 333 333 334
194 206 220 234 240 235 225 209 202 210 222 234 235 230 228 232 248 265 280 278 253 248 260 252 244 253 265 275 292 317 329 333 333 339 344 345 348 353 357 355 353 354 356 358 356 351 347 342 341 343 342 340 339 339 337 337 343 347 352 359 358 355 287 259 275 279 283 295 308 310 302 308 313 319 325 331 336 336 335 337 340 340 338 335 333 332 333 336
202 216 228 232 233 231 224 215 213 222 231 238 240 239 240 244 254 271 285 279 254 248 252 250 250 261 273 276 285 307 321 325 328 336 340 341 347 352 353 351 349 351 353 355 356 352 346 344 344 346 345 343 340 338 334 332 336 339 345 354 353 341 316 301 287 284 286 285 295 294 302 314 321 326 332 336 338 337 336 337 339 338 335 333 332 333 334 337
213 223 225 225 226 219 215 219 221 227 233 239 244 248 253 256 262 271 276 270 258 250 248 247 251 263 275 274 282 306 318 322 325 331 337 341 345 348 349 348 347 347 347 351 354 350 343 342 346 347 344 343 340 335 331 327 326 328 335 347 350 343 330 328 313 304 323 272 285 288 299 312 319 325 332 335 337 337 336 337 338 335 334 333 332 334 336 336
219 221 220 223 221 213 215 227 233 237 241 245 251 259 262 263 267 269 267 263 257 255 255 250 251 265 272 270 282 302 311 315 322 328 334 339 339 342 345 344 344 344 342 346 349 346 343 339 342 345 342 342 340 333 330 327 320 319 320 331 344 345 314 323 327 311 330 312 294 300 303 310 313 317 327 333 335 335 336 337 336 334 333 333 333 335 336 335
214 215 219 223 221 222 232 245 251 252 254 258 263 268 269 269 270 267 261 258 257 259 257 250 254 264 268 271 281 294 302 308 316 322 329 333 333 336 341 341 343 342 339 341 343 344 343 333 329 341 341 339 337 332 326 323 319 315 314 320 335 340 307 308 304 259 280 279 299 311 311 316 325 326 326 333 335 334 336 335 334 332 333 333 334 335 335 334
208 212 221 225 226 233 244 252 257 259 263 268 268 268 271 274 274 270 262 258 257 257 250 249 257 261 265 272 277 288 298 302 308 313 317 327 331 333 338 340 340 340 337 337 337 339 341 329 314 333 341 336 332 330 323 321 319 313 311 313 320 325 316 306 290 264 255 208 245 331 299 310 329 336 329 333 335 334 335 333 330 332 333 334 334 335 335 334
204 213 226 234 237 246 253 256 261 265 267 273 274 272 274 276 276 271 262 258 255 251 249 253 259 263 265 267 274 287 294 296 303 304 304 321 331 331 335 337 336 338 336 334 333 335 338 327 310 324 338 335 331 331 323 321 319 311 309 305 305 314 313 305 288 268 239 220 255 244 278 307 332 344 332 335 336 333 333 329 327 331 333 334 334 335 336 335
209 223 236 247 250 253 258 261 266 271 273 276 277 276 277 277 274 269 263 259 254 253 254 255 259 264 264 264 274 284 289 296 299 294 300 319 328 327 330 334 333 334 334 331 329 331 333 326 311 319 334 336 333 333 326 320 317 311 309 305 304 309 303 288 267 275 263 253 268 245 253 306 333 340 331 334 335 331 330 324 324 329 331 334 335 335 336 335
223 235 249 259 257 257 263 270 275 277 278 279 278 278 278 275 270 267 264 259 256 257 255 253 257 263 264 265 271 278 287 295 293 291 302 316 324 327 328 330 329 329 330 330 327 329 333 330 319 321 332 339 336 331 327 322 317 312 311 308 306 304 302 291 274 277 279 265 264 216 228 302 329 335 330 332 332 328 325 321 323 329 330 334 335 335 336 335
237 246 257 261 261 262 269 277 282 281 281 283 283 281 279 274 269 268 267 261 259 258 254 254 257 261 264 264 267 275 283 288 292 299 307 313 321 325 324 325 326 323 324 326 324 326 331 330 325 325 335 345 342 335 330 323 316 312 311 311 307 304 301 291 277 274 274 269 263 194 236 301 324 331 327 330 329 324 322 321 324 329 331 333 335 335 336 335
248 253 255 256 262 270 277 283 286 287 288 287 285 281 278 277 274 272 270 266 262 260 257 259 262 263 264 263 267 274 279 285 294 302 309 313 317 321 321 321 322 320 321 321 320 321 319 321 326 323 323 331 317 317 324 320 314 312 313 313 309 305 298 290 278 259 264 276 263 234 270 305 325 333 328 329 327 322 322 323 326 330 332 333 334 334 335 335
250 252 254 262 271 277 281 288 291 294 296 294 289 284 279 279 279 275 273 271 268 265 262 263 265 265 265 265 268 274 281 288 294 300 308 310 310 316 317 317 319 319 318 317 318 317 311 316 325 316 306 308 309 316 323 318 311 311 315 313 307 303 298 288 269 259 275 282 273 278 292 305 323 337 335 331 328 323 323 326 328 331 333 333 333 333 334 335
252 254 261 274 284 285 284 290 296 301 303 299 293 287 282 282 283 278 275 273 271 270 267 265 266 265 266 267 269 275 283 288 293 300 305 306 308 313 314 316 318 317 316 316 316 315 310 313 320 316 314 317 320 324 324 312 308 313 317 315 309 304 295 282 273 281 292 278 279 303 308 301 314 335 336 330 330 326 324 327 329 331 334 333 332 332 333 334
258 260 269 279 286 289 289 294 299 303 305 301 294 290 285 283 283 280 278 275 274 273 270 269 269 268 268 269 270 276 283 289 294 299 303 305 308 311 313 316 316 314 316 315 313 314 310 309 315 316 317 321 325 325 319 311 313 317 319 316 310 302 292 286 291 298 293 271 282 308 309 299 313 333 333 329 330 326 325 328 329 332 335 332 331 332 332 333
264 270 276 282 288 293 295 298 302 304 305 303 299 293 286 282 283 282 279 278 278 276 274 273 273 272 271 270 272 277 282 288 292 295 300 305 308 310 313 315 313 313 315 312 310 312 307 307 313 314 316 323 329 325 319 320 322 321 319 308 297 295 293 294 301 305 292 282 294 309 305 305 323 336 330 330 331 327 327 329 330 334 334 331 330 331 331 331
272 279 284 287 292 299 301 302 304 306 307 307 303 297 288 284 284 283 282 282 282 280 279 278 276 274 273 273 275 278 281 284 286 291 298 304 307 309 310 312 312 310 311 309 307 307 304 305 311 312 314 323 333 328 324 325 320 316 316 312 302 300 300 301 305 307 295 293 307 310 301 310 333 338 329 331 333 330 330 331 332 336 334 330 331 331 331 331
278 285 291 295 299 301 303 304 305 307 310 309 304 298 290 286 285 286 288 288 286 285 284 281 277 276 277 279 280 279 279 282 285 291 298 301 304 307 307 308 309 306 306 307 302 302 303 303 309 311 309 316 328 329 325 323 316 311 321 334 323 307 305 308 310 311 306 307 314 307 299 315 336 337 331 333 333 331 331 332 334 336 333 330 331 332 332 331
289 294 296 299 302 303 304 306 306 308 312 310 304 298 291 289 290 291 293 292 290 289 285 282 279 277 278 280 280 278 278 282 287 292 296 299 301 304 304 305 306 303 303 304 299 300 301 300 307 309 303 311 324 326 322 322 318 317 332 333 322 312 312 314 317 319 319 317 311 303 308 326 335 333 331 332 332 331 331 333 336 336 333 331 332 333 332 331